TimeEDT,TemperatureF,Dew PointF,Humidity,Sea Level PressureIn,VisibilityMPH,Wind Direction,Wind SpeedMPH,Gust SpeedMPH,PrecipitationIn,Events,Conditions,WindDirDegrees,DateUTC
12:56 AM,61.0,57.9,90,30.03,10.0,WNW,3.5,-,N/A,,Clear,300,2012-10-06 04:56:00
1:56 AM,59.0,57.0,93,30.02,10.0,Calm,Calm,-,N/A,,Clear,0,2012-10-06 05:56:00
2:56 AM,60.1,57.9,93,30.00,8.0,Calm,Calm,-,N/A,,Clear,0,2012-10-06 06:56:00
3:56 AM,57.9,55.9,93,29.98,10.0,Calm,Calm,-,N/A,,Clear,0,2012-10-06 07:56:00
4:56 AM,59.0,57.0,93,29.96,10.0,Calm,Calm,-,N/A,,Clear,0,2012-10-06 08:56:00
5:56 AM,55.9,54.0,93,29.97,9.0,Calm,Calm,-,N/A,,Clear,0,2012-10-06 09:56:00
6:56 AM,57.0,55.9,96,29.99,5.0,Calm,Calm,-,N/A,,Clear,0,2012-10-06 10:56:00
7:56 AM,57.9,55.0,90,29.99,6.0,Calm,Calm,-,N/A,,Clear,0,2012-10-06 11:56:00
8:56 AM,64.0,60.1,87,29.99,9.0,Calm,Calm,-,N/A,,Clear,0,2012-10-06 12:56:00
9:56 AM,68.0,62.1,81,29.99,10.0,SSW,4.6,-,N/A,,Partly Cloudy,200,2012-10-06 13:56:00
10:56 AM,75.0,61.0,62,29.97,10.0,SW,6.9,-,N/A,,Clear,220,2012-10-06 14:56:00
11:56 AM,77.0,60.1,56,29.97,10.0,West,15.0,20.7,N/A,,Clear,260,2012-10-06 15:56:00
12:56 PM,80.1,59.0,48,29.95,10.0,SW,12.7,-,N/A,,Clear,230,2012-10-06 16:56:00
1:56 PM,80.1,60.1,50,29.94,10.0,WSW,11.5,-,N/A,,Clear,250,2012-10-06 17:56:00
2:56 PM,81.0,61.0,50,29.91,10.0,WSW,11.5,-,N/A,,Clear,240,2012-10-06 18:56:00
3:56 PM,82.0,61.0,49,29.89,10.0,WSW,9.2,-,N/A,,Clear,250,2012-10-06 19:56:00
4:56 PM,82.0,62.1,51,29.88,10.0,WSW,8.1,-,N/A,,Clear,250,2012-10-06 20:56:00
5:56 PM,80.1,62.1,54,29.89,10.0,SW,8.1,-,N/A,,Partly Cloudy,230,2012-10-06 21:56:00
7:56 PM,73.0,63.0,71,29.93,10.0,WSW,6.9,-,N/A,,Partly Cloudy,240,2012-10-06 23:56:00
8:56 PM,72.0,63.0,73,29.93,10.0,West,4.6,-,N/A,,Clear,260,2012-10-07 00:56:00
9:56 PM,70.0,61.0,73,29.95,10.0,WNW,8.1,-,N/A,,Partly Cloudy,290,2012-10-07 01:56:00
10:56 PM,69.1,60.1,73,29.96,10.0,WNW,6.9,-,N/A,,Partly Cloudy,300,2012-10-07 02:56:00
11:56 PM,64.9,60.1,84,29.96,10.0,Calm,Calm,-,N/A,,Clear,0,2012-10-07 03:56:00